Change the Weather History Date:

Wednesday, April 2, 2014

  Actual Average Record
Temperature  
Mean Temperature 42 °F -  
Max Temperature 57 °F 53 °F 77 °F (1967)
Min Temperature 27 °F 32 °F 7 °F (1964)
Degree Days  
Heating Degree Days 23    
Moisture  
Dew Point 29 °F    
Average Humidity 66    
Maximum Humidity 100    
Minimum Humidity 36    
Precipitation  
Precipitation 0.00 in - - ()
Sea Level Pressure  
Sea Level Pressure 30.11 in    
Wind  
Wind Speed 2 mph (SW)    
Max Wind Speed 12 mph    
Max Gust Speed -    
Visibility 10 miles    
Events      
Averages and records for this station are not official NWS values.
T = Trace of Precipitation, MM = Missing Value Source: NWS Daily Summary

Daily Weather History Graph

Daily Weather History Graph

Search for Another Location

Airport or City:

Trip Planner

Search our weather history database for the weather conditions in past years. The results will help you decide how hot, cold, wet, or windy it might be!

Date:

Astronomy

Apr. 02, 2014 Rise Set
Actual Time 6:25 AM EDT 7:12 PM EDT
Civil Twilight 5:57 AM EDT 7:40 PM EDT
Nautical Twilight 5:23 AM EDT 8:14 PM EDT
Astronomical Twilight 4:48 AM EDT 8:49 PM EDT
Moon 8:04 AM EDT (4/2) 10:36 PM EDT (4/2)
Length of Visible Light 13h 43m
Length of Day
12h 46m
Waxing Crescent, 10% of the Moon is Illuminated
Apr 2
Waxing Crescent
Apr 7
First Quarter
Apr 15
Full
Apr 22
Last Quarter
Apr 29
New

Hourly Weather History & Observations

Time (EDT) Temp. Windchill Dew Point Humidity Pressure Visibility Wind Dir Wind Speed Gust Speed Precip Events Conditions
12:56 AM 35.1 °F - 28.9 °F 78% 30.14 in 10.0 mi Calm Calm - N/A   Clear
1:56 AM 33.1 °F - 28.0 °F 82% 30.13 in 10.0 mi Calm Calm - N/A   Clear
2:56 AM 30.0 °F - 28.0 °F 92% 30.14 in 10.0 mi Calm Calm - N/A   Clear
3:56 AM 30.0 °F - 27.0 °F 88% 30.13 in 10.0 mi Calm Calm - N/A   Clear
4:56 AM 28.0 °F - 28.0 °F 100% 30.14 in 10.0 mi Calm Calm - N/A   Clear
5:56 AM 27.0 °F - 27.0 °F 100% 30.14 in 10.0 mi Calm Calm - N/A   Clear
6:56 AM 28.0 °F - 27.0 °F 96% 30.15 in 10.0 mi Calm Calm - N/A   Clear
8:56 AM 41.0 °F - 32.0 °F 70% 30.14 in 10.0 mi Calm Calm - N/A   Clear
9:56 AM 45.0 °F - 30.0 °F 56% 30.15 in 10.0 mi Calm Calm - N/A   Clear
10:56 AM 48.0 °F - 26.1 °F 42% 30.14 in 10.0 mi SSW 8.1 mph - N/A   Clear
11:56 AM 51.1 °F - 26.1 °F 38% 30.13 in 10.0 mi WSW 8.1 mph - N/A   Clear
12:56 PM 51.1 °F - 25.0 °F 36% 30.12 in 10.0 mi West 9.2 mph - N/A   Clear
1:56 PM 52.0 °F - 27.0 °F 38% 30.10 in 10.0 mi SW 11.5 mph - N/A   Clear
2:56 PM 54.0 °F - 28.0 °F 37% 30.07 in 10.0 mi SW 8.1 mph - N/A   Clear
3:56 PM 55.9 °F - 30.0 °F 37% 30.05 in 10.0 mi SSW 6.9 mph - N/A   Clear
4:56 PM 57.0 °F - 30.9 °F 37% 30.04 in 10.0 mi Variable 3.5 mph - N/A   Clear
5:56 PM 57.9 °F - 32.0 °F 37% 30.04 in 10.0 mi WSW 5.8 mph - N/A   Clear
6:56 PM 50.0 °F - 34.0 °F 54% 30.06 in 10.0 mi ENE 9.2 mph - N/A   Clear
7:56 PM 43.0 °F 39.5 °F 33.1 °F 68% 30.08 in 10.0 mi East 5.8 mph - N/A   Clear
8:56 PM 41.0 °F - 30.9 °F 67% 30.09 in 10.0 mi Calm Calm - N/A   Clear
9:56 PM 34.0 °F - 28.9 °F 82% 30.10 in 10.0 mi Calm Calm - N/A   Clear
10:56 PM 34.0 °F - 30.9 °F 89% 30.09 in 10.0 mi Calm Calm - N/A   Clear
11:56 PM 30.9 °F - 30.0 °F 96% 30.09 in 10.0 mi Calm Calm - N/A   Clear